Back to catalog

MOHAMMED VI-B

AliveScienceSSO
NORAD 43717·PAYLOAD·🇲🇦 Morocco

Launched Nov 21, 2018 from Guiana Space Centre

Loading…

Next Passes (next 24 hours)

TLE

FreshSource: Space-Track

Epoch: Sep 14, 2026, 12:41 UTC

1 43717U 18095A   26257.52867524  .00000449  00000-0  70683-4 0  9991
2 43717  97.9488 328.5859 0001117  95.8918 264.2419 14.77093790421371

Track MOHAMMED VI-B in real time with AllMySat

Download on the App Store